Regional Weather Roundup
Issued by NWS

Home | Current Version | Previous Version | Graphics & Text | Print | Product List | Glossary On
Versions: 1 2 3 4 5 6 7 8 9 10 11 12 13 14 15 16 17 18 19 20 21 22 23 24 25 26 27 28 29 30 31 32 33 34 35 36 37 38 39 40 41 42 43 44 45 46 47 48 49 50
000
ASUS43 KDTX 171710
RWRMI
MICHIGAN HOURLY REGIONAL WEATHER ROUNDUP
NATIONAL WEATHER SERVICE DETROIT/PONTIAC MI
1200 PM EST WED DEC 17 2014

NOTE: "FAIR" INDICATES FEW OR NO CLOUDS BELOW 12,000 FEET WITH NO
SIGNIFICANT WEATHER AND/OR OBSTRUCTION TO VISIBILITY.

MIZ047>049-052>055-059>063-066>070-074>076-081>083-171800-
SOUTHEAST LOWER MICHIGAN

CITY           SKY/WX    TMP DP  RH WIND       PRES   REMARKS
ADRIAN         CLOUDY    30  23  75 NW15      30.12F
ALMA           CLOUDY    30  24  79 W15G23    30.07F
ANN ARBOR      CLOUDY    31  21  66 W16       30.08F
BAD AXE        CLOUDY    32  29  91 W17G25    29.97S
DETROIT CITY   CLOUDY    34  22  61 NW15G22   30.06F
DETROIT        CLOUDY    32  22  66 W15G23    30.08F
FLINT          CLOUDY    32  22  66 W17       30.06F
GROSSE ILE     CLOUDY    32  23  69 W17       30.08F
HILLSDALE      CLOUDY    29  25  84 W12G24    30.10F
HOWELL         CLOUDY    29  22  75 W16       30.06F

CITY           SKY/WX    TMP DP  RH WIND       PRES   REMARKS
JACKSON        CLOUDY    30  22  72 W14G22    30.09F
LAMBERTVILLE   CLOUDY    32  27  80 W14G21    30.12S
LANSING        CLOUDY    30  21  69 W16       30.09F
LAPEER         NOT AVBL
MASON          CLOUDY    29  22  74 W18       30.08F
MONROE         CLOUDY    32  25  74 W14       30.09F
MT. CLEMENS    CLOUDY    33  25  72 W18G26    30.02F
PONTIAC        CLOUDY    29  20  69 W18       30.05S
PORT HOPE        N/A     32  28  85 W12G23    29.93S
PORT HURON     CLOUDY    32  27  80 W12G29    30.01S
TRI CITIES     CLOUDY    33  24  69 W22       30.04S
YPSILANTI      CLOUDY    35  21  56 W22G29    30.08F
$$
MIZ043>046-050>051-056>058-064>065-071>073-077>080-171800-
SOUTHWEST LOWER MICHIGAN

CITY           SKY/WX    TMP DP  RH WIND       PRES   REMARKS
BATTLE CREEK   CLOUDY    30  22  72 W16G24    30.12F
BENTON HARBOR  CLOUDY    28  20  71 W15G21    30.19F
BIG RAPIDS     CLOUDY    28  26  94 W9        30.05F FOG
COLDWATER      CLOUDY    28  23  80 W15G22    30.13F
HOLLAND        FLURRIES  32  22  66 W9        30.15F
GRAND RAPIDS   FLURRIES  30  21  69 W17       30.11F
KALAMAZOO      CLOUDY    29  21  72 W14G21    30.14F
MARSHALL       CLOUDY    28  23  81 W13G22    30.11S
MUSKEGON       LGT SNOW  30  21  69 W13G20    30.14S
$$
MIZ016>042-171800-
NORTHERN LOWER MICHIGAN

CITY           SKY/WX    TMP DP  RH WIND       PRES   REMARKS
ALPENA         LGT SNOW  30  27  88 W14G22    29.93S FOG
BEAVER ISLAND  CLOUDY    28  24  82 NW12      30.00S
BELLAIRE       LGT SNOW  31  28  92 W7        30.01F VSB 3/4
CADILLAC       CLOUDY    26  23  89 W16G22    30.00F FOG
CHARLEVOIX     LGT SNOW  29  28  94 NW15G21   30.02F
FRANKFORT      FLURRIES  28  24  85 NW18G26   30.07F
GAYLORD        LGT SNOW  27  25  92 NW8       29.93F FOG
GRAYLING       FLURRIES  30  26  85 CALM      29.96F
HARBOR SPRINGS CLOUDY    29  24  81 W9G17     29.97F
HOUGHTON LAKE  CLOUDY    29  24  82 W14G26    29.97F
MANISTEE       CLOUDY    28  19  69 NW20G25   30.09F
OSCODA         CLOUDY    33  29  87 W15G22    29.94S
PELLSTON       CLOUDY    29  24  82 NW14      29.97S
TRAVERSE CITY  FLURRIES  30  25  81 W14       30.03F
$$
MIZ007>008-015-171800-
EASTERN UPPER MICHIGAN

CITY           SKY/WX    TMP DP  RH WIND       PRES   REMARKS
KINROSS        CLOUDY    25  23  93 N8        29.95S
MACKINAC ISLAN FLURRIES  28  27  99 NW9       29.95S
NEWBERRY       CLOUDY    24  22  91 N13       29.97F
S. S. MARIE    LGT SNOW  24  18  77 N5        29.99R
$$
MIZ004>006-011>014-085-171800-
CENTRAL UPPER MICHIGAN

CITY           SKY/WX    TMP DP  RH WIND       PRES   REMARKS
MANISTIQUE     CLOUDY    28  24  88 N12       30.01S
ESCANABA       CLOUDY    25  19  80 W14       30.05S
MENOMINEE      CLOUDY    25  16  68 NW12G20   30.12F
SAWYER-GWINN   LGT SNOW  25  21  86 N13       30.04S
$$
MIZ001>003-009>011-084-171800-
WESTERN UPPER MICHIGAN

CITY           SKY/WX    TMP DP  RH WIND       PRES   REMARKS
IRON MOUNTAIN  LGT SNOW  23  17  78 NW10      30.09S
HOUGHTON       CLOUDY    23  19  85 N15       30.12S FOG
COPPER HARBOR    N/A     27  22  81 NE26      30.14R
IRONWOOD       CLOUDY    18  16  93 W12       30.16S
$$

ABBREVIATIONS USED IN REMARKS
   TC - TEMPERATURE IN CELSIUS
  WCI - WIND CHILL INDEX
   HX - HEAT INDEX
  VSB - VISIBILITY



USA.gov is the U.S. government's official web portal to all federal, state and local government web resources and services.